Regional Weather Roundup
Issued by NWS

Home | Current Version | Previous Version | Text Only | Print | Product List | Glossary Off
Versions: 1 2 3 4 5 6 7 8 9 10 11 12 13 14 15 16 17 18 19 20 21 22 23 24 25 26 27 28

000
ASUS45 KSLC 222010
RWRUT

UTAH REGIONAL WEATHER ROUNDUP
NATIONAL WEATHER SERVICE SALT LAKE CITY UT
200 PM MDT TUE APR 22 2014

UTZ001>011-023>025-222100-

NORTHERN UTAH

CITY           SKY/WX    TMP DP  RH WIND       PRES   REMARKS
HILL AFB       CLOUDY    69  28  21 S28G43    29.59F
LOGAN          MOSUNNY   70  29  21 S25G51    29.59F
OGDEN          CLOUDY    71  29  21 S26G39    29.56F
PROVO AIRPORT  CLOUDY    70  36  28 S14       29.67F
SALT LAKE CITY CLOUDY    73  28  18 S29G38    29.59F
VERNAL         CLOUDY    68  33  27 SW10      29.77F
WENDOVER       MOSUNNY   75  19  12 SW33G40   29.47F
HEBER CITY     CLOUDY    64  23  20 S14G25    29.71F
WEST JORDAN    SUNNY     72  37  28 SE21G32   29.63F

$$

UTZ012>022-026-027-222100-

SOUTHERN UTAH

CITY           SKY/WX    TMP DP  RH WIND       PRES   REMARKS
BRYCE CANYON   CLOUDY    63  28  26 S25G39    29.93F
CEDAR CITY     PTSUNNY   72  28  19 S35G47    29.75F
MILFORD        CLOUDY    73  28  18 S41G54    29.69F HAZE
MOAB/CYNLANDS  SUNNY     75  24  15 S23G31    29.78F
PRICE          CLOUDY    68  26  20 SE9       29.81F
ST GEORGE      CLOUDY    81  34  18 SW29G40   29.71F
KANAB            N/A     75  28  17 SW22G30   29.84F

$$

REGIONAL REPORTS     COLORADO/ARIZONA

CITY           SKY/WX    TMP DP  RH WIND       PRES   REMARKS
CRAIG, CO      PTSUNNY   71  32  23 SW25G43   29.83F
GRAND JUNCTION CLOUDY    75  21  13 S23G35    29.82F
RIFLE          CLOUDY    71  32  23 W9        29.84F
MONTROSE       CLOUDY    74  25  16 SW25G36   29.91F
CORTEZ         MOSUNNY   75  29  18 S23G30    29.97F
PAGE, AZ       CLOUDY    79  27  14 SW15G24   29.80F
GRAND CANYON   CLOUDY    69  27  20 SW32G38   29.98F
KINGMAN        CLOUDY    82  28  14 SW36G46   29.83F
FLAGSTAFF      MOSUNNY   67  29  24 SW31G44   30.04F

$$

REGIONAL REPORTS    NEVADA/IDAHO/WYOMING

CITY           SKY/WX    TMP DP  RH WIND       PRES   REMARKS
LAS VEGAS, NV  PTSUNNY   81  11   7 SW25G37   29.70S
ELY            MOSUNNY   66   8  10 S41G55    29.62F
ELKO           LGT RAIN  39  35  86 W16       29.79R WCI  30
POCATELLO, ID  PTSUNNY   63  33  32 SW26G32   29.59F
BURLEY         LGT RAIN  48  39  71 W30G48    29.67R
EVANSTON, WY   PTSUNNY   62  27  26 SW24G32   29.76F
ROCK SPRINGS   CLOUDY    65  26  23 S29G39    29.77F

$$



USA.gov is the U.S. government's official web portal to all federal, state and local government web resources and services.